Flag for Germany Weather past 2 weeks in Bietigheim-Bissingen, Baden-Württemberg, Germany

Now
56 °F

Passing clouds.


Feels Like: 56 °F
Forecast: 58 / 77 °F
Wind: 1 mph from North

Location: Stuttgart-Echterdingen

Current Time: Sep 19, 2014 at 4:35:05 AM

Latest Report: Sep 19, 2014 at 4:00 AM


Visibility: 13 mi

Pressure: 29.93 "Hg

Humidity: 92%

Dew point: 54 °F

Location of Bietigheim-BissingenLocation

Historic Weather in Bietigheim-Bissingen — Graph

°F

Bietigheim-Bissingen temperature yesterday

Maximum temperature yesterday: 75 °F (at 4:00 PM)
Minimum temperature yesterday: 57 °F (at 7:00 AM)
Average temperature yesterday: 64 °F

Past Weeks' High & Low Weather Summary

 TemperatureHumidityPressure
High76 °F (Sep 6, 3:00 PM)99% (Sep 5, 8:00 AM)30.16 "Hg (Sep 5, 8:00 AM)
Low51 °F (Sep 17, 6:00 AM)51% (Sep 9, 4:00 PM)29.83 "Hg (Sep 17, 5:00 PM)
Average61 °F83%29.99 "Hg
* Reported Sep 4 3:00 AM — Sep 19 3:00 AM, Bietigheim-Bissingen, Weather by CustomWeather, © 2014

Note: Actual official high and low records may vary slightly from our data, if they occured in-between our weather recording intervals... More about our weather records

Advertising

Bietigheim-Bissingen weather history for previous 24 hours

 ConditionsComfort  
Time TempWeatherWind HumidityBarometerVisibility
3:00 AM
Sep 19
57 °FClear.1 mph93%29.93 "Hg12 mi
2:00 AM58 °FPassing clouds.1 mph94%29.93 "Hg11 mi
1:00 AM58 °FFog.1 mph96%29.93 "Hg4 mi
12:00 AM60 °FFog.1 mph94%29.93 "Hg4 mi
10:00 PM
Sep 18
61 °FPassing clouds.1 mph93%29.93 "Hg16 mi
9:00 PM63 °FPassing clouds.2 mph94%29.91 "Hg16 mi
8:00 PM65 °FPassing clouds.1 mph92%29.89 "Hg9 mi
7:00 PM66 °FOvercast.2 mph90%29.90 "Hg9 mi
6:00 PM68 °FLight rain. Overcast.5 mph81%29.90 "Hg6 mi
5:00 PM73 °FOvercast.1 mph64%29.86 "Hg12 mi
4:00 PM75 °FOvercast.1 mph61%29.84 "Hg12 mi
3:00 PM74 °FPartly sunny.1 mph59%29.85 "Hg16 mi
2:00 PM73 °FPartly sunny.1 mph63%29.85 "Hg16 mi
1:00 PM72 °FPartly sunny.2 mph68%29.85 "Hg14 mi
12:00 PM71 °FPartly sunny.1 mph69%29.86 "Hg12 mi
11:00 AM68 °FPartly sunny.1 mph78%29.88 "Hg11 mi
10:00 AM65 °FScattered clouds.1 mph81%29.88 "Hg10 mi
9:00 AM60 °FScattered clouds.1 mph93%29.89 "Hg10 mi
8:00 AM57 °FPartly sunny.1 mph94%29.89 "Hg9 mi
7:00 AM57 °FOvercast.1 mph96%29.88 "Hg8 mi
6:00 AM58 °FOvercast.1 mph93%29.88 "Hg11 mi
5:00 AM58 °FOvercast.1 mph92%29.88 "Hg11 mi
4:00 AM58 °FOvercast.1 mph92%29.88 "Hg11 mi
Weather by CustomWeather, © 2014

See weather overviewHow to use our weather pages